Language: 


Des rapports , des résumés tant et plus, au choix de chacun....


Données statistiques de la station
Quotidien Rapport Janvier 1, 2018 Unités:  Métrique    Anglais   les deux
« Précédent Jour
Suivant Jour »
Quotidien Hebdomadaire Mensuel Annuel Actuel
  Haut: Bas: Moyen:
Température: -17.8 °C -14.7 °C -14.1 °C
Pt de rosée: -17.8 °C -15 °C -14.4 °C
Humidité: Humidity % 81 % 95 %
Vitesse du vent: 0 km/h 0 km/h 23.7 km/h
Rafales: 0 km/h - -
Vent:- - SW
Pression: 0 hPa 33626.4 hPa -
Précipitation: 368.3 mm    
Historical Graphs
 
 
Données statistiques pour Janvier 1, 2018
Heure Température Point de rosée Pression Vent Vitesse du vent Refales Humidité Pluie (taux horaire)
-17.8 °C -17.8 °C 0 hPa Calm     Humidity % 0 mm
00:00 -13.7 °C -14.4 °C 33788.9 hPa WSW 45.9 km/h 81.1 km/h 89 % 20.32 mm
00:05 -13.8 °C -14.4 °C 33788.9 hPa WSW 40.7 km/h 65 km/h 90 % 20.32 mm
00:07 -13.8 °C -14.4 °C 33788.9 hPa SW 38.3 km/h 65 km/h 91 % 20.32 mm
00:12 -13.7 °C -14.4 °C 33788.9 hPa WSW 45.9 km/h 65 km/h 91 % 20.32 mm
00:14 -13.7 °C -14.4 °C 33788.9 hPa WSW 36 km/h 57.9 km/h 91 % 33.02 mm
00:20 -13.5 °C -14.4 °C 33788.9 hPa WSW 42.2 km/h 78.7 km/h 90 % 33.02 mm
00:21 -13.5 °C -14.4 °C 33788.9 hPa WSW 65.5 km/h 78.7 km/h 90 % 33.02 mm
00:26 -13.3 °C -14.4 °C 33788.9 hPa WSW 65 km/h 92.2 km/h 87 % 33.02 mm
00:31 -13.2 °C -14.4 °C 33788.9 hPa WSW 52.8 km/h 92.2 km/h 86 % 25.4 mm
00:35 -13.2 °C -14.4 °C 33788.9 hPa WSW 68.4 km/h 88.5 km/h 85 % 12.7 mm
00:41 -13.2 °C -14.4 °C 33788.9 hPa WSW 56.6 km/h 88.5 km/h 85 % 12.7 mm
00:46 -13.2 °C -14.4 °C 33788.9 hPa WSW 59.5 km/h 83.4 km/h 85 % 12.7 mm
00:51 -13.2 °C -14.4 °C 33788.9 hPa WSW 67.1 km/h 85.8 km/h 85 % 7.62 mm
00:52 -13.2 °C -14.4 °C 33788.9 hPa WSW 34.8 km/h 85.8 km/h 85 % 7.62 mm
00:57 -13.2 °C -14.4 °C 33788.9 hPa WSW 55.2 km/h 85.8 km/h 86 % 7.62 mm
00:58 -13.2 °C -14.4 °C 33788.9 hPa WSW 58.6 km/h 85.8 km/h 86 % 7.62 mm
01:00 -13.3 °C -14.4 °C 33788.9 hPa WSW 63.7 km/h 92.2 km/h 85 % 7.62 mm
01:05 -13.3 °C -14.4 °C 33788.9 hPa WSW 51.5 km/h 92.2 km/h 86 % 7.62 mm
01:07 -13.3 °C -14.4 °C 33788.9 hPa WSW 39.4 km/h 92.2 km/h 86 % 7.62 mm
01:12 -13.3 °C -14.4 °C 33822.8 hPa WSW 68.4 km/h 82.9 km/h 86 % 7.62 mm
01:16 -13.4 °C -14.4 °C 33822.8 hPa WSW 45.9 km/h 84.6 km/h 88 % 0 mm
01:20 -13.4 °C -14.4 °C 33822.8 hPa WSW 63.7 km/h 84.6 km/h 89 % 0 mm
01:25 -13.5 °C -14.4 °C 33822.8 hPa WSW 51 km/h 67.9 km/h 92 % 0 mm
01:30 -13.5 °C -14.4 °C 33822.8 hPa WSW 58.6 km/h 67.9 km/h 92 % 0 mm
01:31 -13.5 °C -13.9 °C 33822.8 hPa WSW 59.5 km/h 67.9 km/h 93 % 0 mm
01:36 -13.5 °C -13.9 °C 33822.8 hPa WSW 49.2 km/h 65 km/h 93 % 0 mm
01:37 -13.5 °C -13.9 °C 33822.8 hPa WSW 50.5 km/h 65 km/h 93 % 0 mm
01:42 -13.5 °C -13.9 °C 33822.8 hPa SSW 65.5 km/h 82.4 km/h 93 % 7.62 mm
01:45 -13.6 °C -13.9 °C 33822.8 hPa WSW 48.6 km/h 82.4 km/h 93 % 7.62 mm
01:49 -13.6 °C -14.4 °C 33822.8 hPa WSW 44.1 km/h 82.4 km/h 92 % 7.62 mm
01:54 -13.6 °C -14.4 °C 33822.8 hPa WSW 57.9 km/h 67.1 km/h 92 % 7.62 mm
01:59 -13.6 °C -14.4 °C 33822.8 hPa WSW 45.9 km/h 66.6 km/h 92 % 7.62 mm
02:04 -13.6 °C -14.4 °C 33822.8 hPa WSW 42.2 km/h 68.4 km/h 92 % 7.62 mm
02:06 -13.6 °C -13.9 °C 33822.8 hPa WSW 57.9 km/h 68.4 km/h 93 % 7.62 mm
02:11 -13.6 °C -13.9 °C 33822.8 hPa WSW 57.9 km/h 68.4 km/h 93 % 7.62 mm
02:12 -13.6 °C -14.4 °C 33822.8 hPa WSW 57.9 km/h 68.4 km/h 92 % 7.62 mm
02:17 -13.6 °C -14.4 °C 33822.8 hPa WSW 57.9 km/h 57.9 km/h 92 % 7.62 mm
02:18 -13.6 °C -14.4 °C 33822.8 hPa WSW 57.9 km/h 57.9 km/h 92 % 7.62 mm
02:23 -13.6 °C -14.4 °C 33822.8 hPa WSW 44.6 km/h 57.9 km/h 92 % 7.62 mm
02:28 -13.7 °C -14.4 °C 33856.6 hPa WSW 44.6 km/h 57.9 km/h 93 % 7.62 mm
02:29 -13.7 °C -14.4 °C 33856.6 hPa WSW 44.6 km/h 57.9 km/h 93 % 7.62 mm
02:35 -13.7 °C -14.4 °C 33856.6 hPa WSW 44.6 km/h 44.6 km/h 93 % 7.62 mm
02:37 -13.7 °C -14.4 °C 33856.6 hPa WSW 44.6 km/h 44.6 km/h 94 % 7.62 mm
02:40 -13.7 °C -14.4 °C 33856.6 hPa WSW 28.5 km/h 44.6 km/h 94 % 0 mm
02:45 -13.7 °C -14.4 °C 33856.6 hPa WSW 45.9 km/h 45.9 km/h 94 % 0 mm
02:47 -13.7 °C -14.4 °C 33856.6 hPa WSW 45.9 km/h 45.9 km/h 94 % 0 mm
02:50 -13.7 °C -14.4 °C 33856.6 hPa WSW 45.9 km/h 45.9 km/h 94 % 0 mm
02:53 -13.7 °C -14.4 °C 33856.6 hPa WSW 33.2 km/h 45.9 km/h 94 % 0 mm
02:58 -13.7 °C -14.4 °C 33890.5 hPa WSW 50.5 km/h 50.5 km/h 94 % 0 mm
03:02 -13.7 °C -14.4 °C 33890.5 hPa WSW 54.4 km/h 54.4 km/h 94 % 0 mm
03:07 -13.8 °C -14.4 °C 33890.5 hPa WSW 59.5 km/h 60.3 km/h 94 % 0 mm
03:09 -13.8 °C -14.4 °C 33890.5 hPa WSW 59.5 km/h 60.3 km/h 94 % 0 mm
03:10 -13.8 °C -14.4 °C 33890.5 hPa WSW 59.5 km/h 60.3 km/h 94 % 0 mm
03:14 -13.8 °C -14.4 °C 33890.5 hPa SW 34.1 km/h 60.3 km/h 93 % 0 mm
03:15 -13.8 °C -14.4 °C 33890.5 hPa SW 34.1 km/h 60.3 km/h 93 % 0 mm
03:17 -13.8 °C -14.4 °C 33890.5 hPa SSW 37 km/h 59.5 km/h 93 % 0 mm
03:22 -13.8 °C -14.4 °C 33890.5 hPa SSW 37 km/h 37 km/h 93 % 0 mm
03:25 -13.8 °C -14.4 °C 33890.5 hPa SSW 37 km/h 37 km/h 93 % 0 mm
03:26 -13.8 °C -14.4 °C 33890.5 hPa SSW 37 km/h 37 km/h 93 % 0 mm
03:30 -13.8 °C -14.4 °C 33890.5 hPa SSW 33.6 km/h 37 km/h 93 % 0 mm
03:35 -13.8 °C -14.4 °C 33890.5 hPa SW 26.7 km/h 37 km/h 93 % 0 mm
03:38 -13.8 °C -14.4 °C 33890.5 hPa SW 26.7 km/h 37 km/h 93 % 0 mm
03:41 -13.8 °C -14.4 °C 33856.6 hPa SW 26.7 km/h 33.6 km/h 92 % 0 mm
03:44 -13.8 °C -14.4 °C 33856.6 hPa SW 26.7 km/h 26.7 km/h 92 % 0 mm
03:46 -13.8 °C -14.4 °C 33856.6 hPa SSW 34.1 km/h 34.1 km/h 92 % 0 mm
03:47 -13.8 °C -14.4 °C 33856.6 hPa SSW 34.1 km/h 34.1 km/h 92 % 0 mm
03:51 -13.9 °C -14.4 °C 33856.6 hPa SSW 34.1 km/h 34.1 km/h 92 % 0 mm
03:54 -13.9 °C -14.4 °C 33856.6 hPa WSW 31.9 km/h 34.1 km/h 91 % 0 mm
03:57 -13.9 °C -14.4 °C 33856.6 hPa WSW 31.9 km/h 34.1 km/h 91 % 0 mm
04:00 -13.9 °C -14.4 °C 33856.6 hPa WSW 31.9 km/h 34.1 km/h 91 % 0 mm
04:05 -13.9 °C -14.4 °C 33856.6 hPa WSW 31.9 km/h 31.9 km/h 92 % 0 mm
04:10 -13.9 °C -14.4 °C 33856.6 hPa SSW 20.9 km/h 31.9 km/h 92 % 0 mm
04:15 -14 °C -14.4 °C 33890.5 hPa WSW 26.2 km/h 31.9 km/h 92 % 0 mm
04:19 -14 °C -14.4 °C 33890.5 hPa WSW 26.2 km/h 27.7 km/h 92 % 0 mm
04:24 -14 °C -14.4 °C 33890.5 hPa WSW 26.2 km/h 26.2 km/h 92 % 0 mm
04:25 -14 °C -14.4 °C 33890.5 hPa WSW 26.2 km/h 26.2 km/h 92 % 0 mm
04:30 -14 °C -14.4 °C 33890.5 hPa SW 22.5 km/h 26.7 km/h 92 % 0 mm
04:31 -14 °C -14.4 °C 33890.5 hPa SW 22.5 km/h 26.7 km/h 92 % 0 mm
04:33 -14 °C -14.4 °C 33890.5 hPa SW 22.5 km/h 26.7 km/h 92 % 0 mm
04:38 -14 °C -14.4 °C 33890.5 hPa SW 27.2 km/h 27.2 km/h 92 % 0 mm
04:43 -14.1 °C -14.4 °C 33890.5 hPa SSW 26.7 km/h 27.2 km/h 92 % 0 mm
04:44 -14.1 °C -14.4 °C 33890.5 hPa SSW 26.7 km/h 27.2 km/h 92 % 0 mm
04:45 -14.1 °C -14.4 °C 33890.5 hPa SSW 26.7 km/h 27.2 km/h 92 % 0 mm
04:50 -14.1 °C -14.4 °C 33890.5 hPa SSW 24.8 km/h 27.2 km/h 92 % 0 mm
04:52 -14.1 °C -14.4 °C 33890.5 hPa WSW 16.9 km/h 26.7 km/h 92 % 0 mm
04:57 -14.1 °C -14.4 °C 33890.5 hPa SSW 20.3 km/h 32.3 km/h 93 % 0 mm
05:01 -14.1 °C -14.4 °C 33890.5 hPa SSW 20.3 km/h 32.3 km/h 93 % 0 mm
05:06 -14.1 °C -14.4 °C 33890.5 hPa SSW 15.6 km/h 32.3 km/h 93 % 0 mm
05:08 -14.1 °C -14.4 °C 33890.5 hPa SSW 15.6 km/h 32.3 km/h 93 % 0 mm
05:13 -14.1 °C -14.4 °C 33890.5 hPa SSW 19.2 km/h 27.2 km/h 93 % 0 mm
05:14 -14.1 °C -14.4 °C 33890.5 hPa SSW 19.2 km/h 27.2 km/h 93 % 0 mm
05:19 -14.1 °C -14.4 °C 33890.5 hPa SSW 19.2 km/h 27.2 km/h 93 % 0 mm
05:20 -14.1 °C -14.4 °C 33890.5 hPa SSW 22.5 km/h 27.2 km/h 93 % 0 mm
05:21 -14.1 °C -14.4 °C 33890.5 hPa SSW 22.5 km/h 27.2 km/h 93 % 0 mm
05:26 -14.2 °C -14.4 °C 33924.3 hPa SSW 26.2 km/h 26.2 km/h 93 % 0 mm
05:29 -14.1 °C -14.4 °C 33924.3 hPa SW 22.5 km/h 26.2 km/h 94 % 0 mm
05:34 -14.1 °C -14.4 °C 33924.3 hPa SSW 29 km/h 32.3 km/h 94 % 0 mm
05:40 -14.1 °C -14.4 °C 33924.3 hPa SSW 18.7 km/h 32.3 km/h 94 % 0 mm
05:45 -14 °C -14.4 °C 33924.3 hPa South 25.4 km/h 29 km/h 94 % 0 mm
05:48 -14 °C -14.4 °C 33924.3 hPa South 25.4 km/h 27.2 km/h 94 % 0 mm
05:53 -13.9 °C -14.4 °C 33924.3 hPa SSW 26.7 km/h 26.7 km/h 94 % 0 mm
05:55 -13.9 °C -14.4 °C 33924.3 hPa SSW 26.7 km/h 26.7 km/h 94 % 0 mm
06:00 -13.9 °C -14.4 °C 33924.3 hPa SSW 39.9 km/h 60.8 km/h 93 % 0 mm
06:01 -13.9 °C -14.4 °C 33924.3 hPa SSW 39.9 km/h 60.8 km/h 93 % 0 mm
06:05 -14.1 °C -14.4 °C 33924.3 hPa SSW 39.9 km/h 60.8 km/h 93 % 7.62 mm
06:10 -14.2 °C -14.4 °C 33924.3 hPa SSW 39.9 km/h 39.9 km/h 94 % 7.62 mm
06:12 -14.2 °C -14.4 °C 33924.3 hPa SSW 39.9 km/h 39.9 km/h 94 % 12.7 mm
06:17 -14.2 °C -14.4 °C 33924.3 hPa WSW 33.6 km/h 39.9 km/h 95 % 12.7 mm
06:22 -14.3 °C -14.4 °C 33924.3 hPa SSW 23 km/h 39.9 km/h 95 % 12.7 mm
06:23 -14.3 °C -14.4 °C 33924.3 hPa SSW 23 km/h 39.9 km/h 95 % 12.7 mm
06:24 -14.3 °C -14.4 °C 33924.3 hPa SW 26.7 km/h 33.6 km/h 96 % 12.7 mm
06:29 -14.3 °C -14.4 °C 33924.3 hPa SW 26.7 km/h 31.4 km/h 96 % 12.7 mm
06:35 -14.4 °C -14.4 °C 33924.3 hPa WSW 22 km/h 26.7 km/h 96 % 12.7 mm
06:40 -14.4 °C -14.4 °C 33924.3 hPa WSW 25.4 km/h 26.7 km/h 96 % 12.7 mm
06:45 -14.4 °C -14.4 °C 33924.3 hPa SW 28.5 km/h 35.2 km/h 96 % 12.7 mm
06:47 -14.4 °C -14.4 °C 33924.3 hPa SW 29 km/h 35.2 km/h 96 % 12.7 mm
06:52 -14.4 °C -14.4 °C 33924.3 hPa WSW 16.9 km/h 35.2 km/h 97 % 12.7 mm
06:56 -14.4 °C -14.4 °C 33924.3 hPa WSW 26.7 km/h 38.3 km/h 97 % 12.7 mm
07:01 -14.4 °C -14.4 °C 33924.3 hPa SSW 20.9 km/h 38.3 km/h 97 % 12.7 mm
07:06 -14.3 °C -14.4 °C 33924.3 hPa WSW 33.2 km/h 43.5 km/h 97 % 7.62 mm
07:10 -14.3 °C -14.4 °C 33924.3 hPa WSW 33.2 km/h 43.5 km/h 98 % 12.7 mm
07:13 -14.3 °C -14.4 °C 33924.3 hPa WSW 33.2 km/h 43.5 km/h 98 % 7.62 mm
07:17 -14.3 °C -14.4 °C 33924.3 hPa WSW 33.2 km/h 33.2 km/h 98 % 7.62 mm
07:20 -14.3 °C -14.4 °C 33924.3 hPa WSW 33.2 km/h 33.2 km/h 98 % 12.7 mm
07:25 -14.3 °C -14.4 °C 33924.3 hPa WSW 33.2 km/h 33.2 km/h 98 % 25.4 mm
07:27 -14.3 °C -14.4 °C 33958.2 hPa WSW 33.2 km/h 33.2 km/h 98 % 25.4 mm
07:32 -14.3 °C -14.4 °C 33958.2 hPa WSW 22.5 km/h 33.2 km/h 98 % 25.4 mm
07:36 -14.3 °C -14.4 °C 33958.2 hPa WSW 22.5 km/h 33.2 km/h 98 % 25.4 mm
07:38 -14.3 °C -14.4 °C 33958.2 hPa WSW 22.5 km/h 33.2 km/h 98 % 25.4 mm
07:43 -14.3 °C -14.4 °C 33924.3 hPa WSW 22.5 km/h 22.5 km/h 98 % 33.02 mm
07:48 -14.4 °C -14.4 °C 33924.3 hPa WSW 22.5 km/h 22.5 km/h 98 % 38.1 mm
07:50 -14.4 °C -14.4 °C 33924.3 hPa WSW 22.5 km/h 22.5 km/h 98 % 38.1 mm
07:55 -14.4 °C -14.4 °C 33924.3 hPa WSW 22.5 km/h 22.5 km/h 98 % 38.1 mm
08:01 -14.4 °C -14.4 °C 33924.3 hPa WSW 22.5 km/h 22.5 km/h 98 % 38.1 mm
08:06 -14.4 °C -14.4 °C 33924.3 hPa SW 22 km/h 22 km/h 98 % 38.1 mm
08:11 -14.4 °C -14.4 °C 33924.3 hPa SSW 20.9 km/h 27.2 km/h 98 % 33.02 mm
08:13 -14.4 °C -14.4 °C 33924.3 hPa SSW 20.3 km/h 27.2 km/h 98 % 33.02 mm
08:18 -14.4 °C -14.4 °C 33924.3 hPa WSW 20.3 km/h 30.7 km/h 98 % 25.4 mm
08:23 -14.4 °C -14.4 °C 33924.3 hPa WSW 22 km/h 30.7 km/h 98 % 12.7 mm
08:24 -14.5 °C -14.4 °C 33924.3 hPa SW 19.6 km/h 30.7 km/h 98 % 12.7 mm
08:29 -14.5 °C -14.4 °C 33924.3 hPa SSW 33.6 km/h 33.6 km/h 98 % 12.7 mm
08:35 -14.6 °C -14.4 °C 33924.3 hPa SW 22.5 km/h 33.6 km/h 98 % 12.7 mm
08:37 -14.6 °C -14.4 °C 33924.3 hPa SSW 22 km/h 33.6 km/h 98 % 12.7 mm
08:42 -14.6 °C -14.4 °C 33924.3 hPa SSW 31.9 km/h 31.9 km/h 98 % 7.62 mm
08:43 -14.6 °C -14.4 °C 33924.3 hPa SSW 31.9 km/h 31.9 km/h 98 % 7.62 mm
08:44 -14.6 °C -14.4 °C 33924.3 hPa SSW 31.9 km/h 31.9 km/h 98 % 7.62 mm
08:46 -14.6 °C -14.4 °C 33924.3 hPa WSW 22 km/h 31.9 km/h 98 % 0 mm
08:51 -14.6 °C -14.4 °C 33924.3 hPa SW 19.2 km/h 31.9 km/h 97 % 0 mm
08:57 -14.6 °C -14.4 °C 33924.3 hPa SSW 16.9 km/h 22.5 km/h 97 % 0 mm
08:58 -14.6 °C -14.4 °C 33924.3 hPa SSW 15 km/h 22.5 km/h 97 % 0 mm
08:59 -14.6 °C -14.4 °C 33924.3 hPa SSW 15 km/h 22.5 km/h 97 % 0 mm
09:04 -14.6 °C -14.4 °C 33924.3 hPa SSW 12.2 km/h 25.4 km/h 97 % 0 mm
09:09 -14.6 °C -14.4 °C 33924.3 hPa SSW 22.5 km/h 25.4 km/h 97 % 0 mm
09:11 -14.5 °C -14.4 °C 33924.3 hPa SSW 19.6 km/h 25.4 km/h 97 % 0 mm
09:16 -14.5 °C -14.4 °C 33924.3 hPa SSW 16.3 km/h 22.5 km/h 97 % 0 mm
09:21 -14.6 °C -14.4 °C 33924.3 hPa SSW 19.6 km/h 23.8 km/h 97 % 0 mm
09:23 -14.6 °C -14.4 °C 33924.3 hPa SSW 22 km/h 23.8 km/h 97 % 0 mm
09:28 -14.6 °C -14.4 °C 33924.3 hPa SSW 15 km/h 22.5 km/h 97 % 0 mm
09:31 -14.6 °C -14.4 °C 33924.3 hPa SSW 15 km/h 22.5 km/h 97 % 0 mm
09:36 -14.6 °C -14.4 °C 33924.3 hPa SSW 24.3 km/h 26.7 km/h 96 % 0 mm
09:37 -14.6 °C -14.4 °C 33924.3 hPa SSW 22 km/h 26.7 km/h 96 % 0 mm
09:39 -14.6 °C -14.4 °C 33924.3 hPa South 14.5 km/h 26.7 km/h 96 % 0 mm
09:42 -14.6 °C -14.4 °C 33890.5 hPa South 9.8 km/h 26.7 km/h 96 % 0 mm
09:47 -14.5 °C -14.4 °C 33890.5 hPa South 12.7 km/h 24.3 km/h 96 % 0 mm
09:48 -14.5 °C -14.4 °C 33890.5 hPa South 14 km/h 24.3 km/h 96 % 0 mm
09:53 -14.5 °C -14.4 °C 33890.5 hPa SSW 16.3 km/h 20.9 km/h 96 % 0 mm
09:58 -14.5 °C -14.4 °C 33890.5 hPa South 14 km/h 27.7 km/h 96 % 0 mm
10:04 -14.4 °C -14.4 °C 33890.5 hPa South 22 km/h 27.7 km/h 96 % 0 mm
10:09 -14.4 °C -14.4 °C 33890.5 hPa South 19.6 km/h 26.7 km/h 96 % 0 mm
10:14 -14.4 °C -14.4 °C 33856.6 hPa SSW 14.5 km/h 26.7 km/h 96 % 0 mm
10:16 -14.4 °C -14.4 °C 33856.6 hPa SW 16.3 km/h 26.7 km/h 95 % 0 mm
10:20 -14.4 °C -14.4 °C 33856.6 hPa South 7.6 km/h 26.7 km/h 95 % 0 mm
10:22 -14.4 °C -14.4 °C 33856.6 hPa South 11.1 km/h 26.7 km/h 95 % 0 mm
10:27 -14.3 °C -14.4 °C 33890.5 hPa South 14 km/h 26.7 km/h 95 % 0 mm
10:28 -14.3 °C -14.4 °C 33890.5 hPa South 20.9 km/h 26.7 km/h 95 % 0 mm
10:32 -14.3 °C -14.4 °C 33890.5 hPa SSW 19.6 km/h 26.7 km/h 95 % 0 mm
10:37 -14.3 °C -14.4 °C 33890.5 hPa South 26.2 km/h 29 km/h 95 % 0 mm
10:42 -14.2 °C -14.4 °C 33890.5 hPa South 16.3 km/h 30.7 km/h 95 % 0 mm
10:47 -14.2 °C -14.4 °C 33890.5 hPa SSW 15 km/h 30.7 km/h 95 % 0 mm
10:50 -14.2 °C -14.4 °C 33890.5 hPa South 24.3 km/h 31.9 km/h 95 % 0 mm
10:55 -14.1 °C -14.4 °C 33890.5 hPa South 11.1 km/h 31.9 km/h 95 % 0 mm
11:00 -14.1 °C -14.4 °C 33890.5 hPa SSW 19.6 km/h 27.7 km/h 95 % 0 mm
11:01 -14.1 °C -14.4 °C 33890.5 hPa SSW 20.3 km/h 27.7 km/h 95 % 0 mm
11:05 -14.1 °C -14.4 °C 33890.5 hPa SSW 14.5 km/h 30.7 km/h 94 % 0 mm
11:10 -14 °C -14.4 °C 33890.5 hPa SSW 23 km/h 31.4 km/h 94 % 0 mm
11:15 -13.9 °C -14.4 °C 33856.6 hPa SSW 38.3 km/h 38.3 km/h 93 % 0 mm
11:20 -13.9 °C -14.4 °C 33856.6 hPa SSW 15.6 km/h 39.4 km/h 92 % 0 mm
11:21 -13.9 °C -14.4 °C 33856.6 hPa SSW 33.2 km/h 39.4 km/h 92 % 0 mm
11:26 -13.9 °C -14.4 °C 33822.8 hPa South 24.8 km/h 39.4 km/h 92 % 7.62 mm
11:28 -13.9 °C -14.4 °C 33822.8 hPa South 22 km/h 34.1 km/h 92 % 7.62 mm
11:33 -13.9 °C -14.4 °C 33822.8 hPa South 17.4 km/h 34.1 km/h 91 % 7.62 mm
11:36 -13.9 °C -14.4 °C 33822.8 hPa SSW 18.7 km/h 33.6 km/h 92 % 7.62 mm
11:40 -13.9 °C -14.4 °C 33822.8 hPa South 19.2 km/h 25.4 km/h 92 % 7.62 mm
11:43 -13.9 °C -14.4 °C 33822.8 hPa SSE 20.9 km/h 26.7 km/h 92 % 7.62 mm
11:48 -13.9 °C -14.4 °C 33822.8 hPa South 32.3 km/h 32.3 km/h 92 % 7.62 mm
11:49 -13.9 °C -14.4 °C 33822.8 hPa South 15 km/h 32.3 km/h 92 % 7.62 mm
11:50 -13.9 °C -14.4 °C 33822.8 hPa South 30.7 km/h 32.3 km/h 92 % 7.62 mm
11:55 -13.9 °C -14.4 °C 33822.8 hPa South 26.2 km/h 32.3 km/h 92 % 7.62 mm
11:57 -13.9 °C -14.4 °C 33822.8 hPa SSW 20.3 km/h 32.3 km/h 92 % 7.62 mm
12:02 -13.9 °C -14.4 °C 33822.8 hPa South 26.2 km/h 31.9 km/h 93 % 7.62 mm
12:07 -13.9 °C -14.4 °C 33822.8 hPa South 19.2 km/h 33.2 km/h 93 % 7.62 mm
12:09 -13.9 °C -14.4 °C 33822.8 hPa SSE 22.5 km/h 33.2 km/h 93 % 7.62 mm
12:14 -13.9 °C -14.4 °C 33788.9 hPa SSE 14 km/h 44.6 km/h 94 % 7.62 mm
12:16 -13.9 °C -14.4 °C 33788.9 hPa SSW 19.2 km/h 44.6 km/h 94 % 7.62 mm
12:17 -13.9 °C -14.4 °C 33788.9 hPa SSW 26.2 km/h 44.6 km/h 94 % 7.62 mm
12:22 -13.8 °C -14.4 °C 33788.9 hPa SSW 15 km/h 44.6 km/h 94 % 7.62 mm
12:24 -13.8 °C -14.4 °C 33788.9 hPa South 25.4 km/h 34.1 km/h 94 % 7.62 mm
12:29 -13.8 °C -14.4 °C 33788.9 hPa SSW 29.5 km/h 34.1 km/h 94 % 0 mm
12:30 -13.8 °C -14.4 °C 33788.9 hPa South 22 km/h 34.1 km/h 94 % 0 mm
12:32 -13.8 °C -13.9 °C 33788.9 hPa SSW 31.9 km/h 43.5 km/h 95 % 0 mm
12:37 -13.8 °C -13.9 °C 33788.9 hPa South 9.8 km/h 43.5 km/h 95 % 0 mm
12:39 -13.8 °C -13.9 °C 33788.9 hPa SSW 16.3 km/h 43.5 km/h 95 % 0 mm
12:44 -13.8 °C -13.9 °C 33751.6 hPa South 16.3 km/h 27.2 km/h 95 % 0 mm
12:45 -13.8 °C -13.9 °C 33751.6 hPa South 20.9 km/h 27.2 km/h 95 % 0 mm
12:50 -13.8 °C -13.9 °C 33751.6 hPa SSE 15 km/h 27.2 km/h 95 % 0 mm
12:52 -13.8 °C -14.4 °C 33751.6 hPa SSW 20.9 km/h 27.2 km/h 95 % 0 mm
12:57 -13.8 °C -13.9 °C 33751.6 hPa South 12.7 km/h 27.7 km/h 96 % 0 mm
12:58 -13.8 °C -13.9 °C 33751.6 hPa South 14.5 km/h 27.7 km/h 96 % 0 mm
13:03 -13.8 °C -13.9 °C 33751.6 hPa South 14 km/h 29 km/h 96 % 0 mm
13:05 -13.8 °C -13.9 °C 33751.6 hPa South 19.2 km/h 29 km/h 96 % 7.62 mm
13:08 -13.8 °C -13.9 °C 33751.6 hPa SSW 22.5 km/h 33.6 km/h 97 % 7.62 mm
13:12 -13.8 °C -13.9 °C 33751.6 hPa SSW 26.2 km/h 33.6 km/h 97 % 7.62 mm
13:17 -13.9 °C -13.9 °C 33751.6 hPa SSW 19.6 km/h 33.6 km/h 97 % 12.7 mm
13:19 -13.9 °C -13.9 °C 33751.6 hPa South 33.2 km/h 33.2 km/h 97 % 20.32 mm
13:24 -13.9 °C -13.9 °C 33751.6 hPa SSW 25.4 km/h 33.2 km/h 98 % 20.32 mm
13:26 -13.9 °C -13.9 °C 33731.3 hPa SSW 19.6 km/h 33.2 km/h 98 % 33.02 mm
13:31 -14.1 °C -13.9 °C 33731.3 hPa South 20.3 km/h 31.4 km/h 98 % 38.1 mm
13:32 -14.1 °C -13.9 °C 33731.3 hPa South 16.3 km/h 27.2 km/h 98 % 38.1 mm
13:37 -14.1 °C -13.9 °C 33731.3 hPa Calm   27.2 km/h 98 % 45.72 mm
13:42 -14.2 °C -13.9 °C 33694.1 hPa SE 9.8 km/h 20.9 km/h 98 % 58.42 mm
13:44 -14.2 °C -13.9 °C 33694.1 hPa SSE 15.6 km/h 18.7 km/h 98 % 58.42 mm
13:47 -14.2 °C -13.9 °C 33694.1 hPa SE 5.1 km/h 17.9 km/h 98 % 58.42 mm
13:49 -14.2 °C -13.9 °C 33694.1 hPa Calm   17.9 km/h 98 % 63.5 mm
13:54 -14.2 °C -13.9 °C 33694.1 hPa Calm   17.9 km/h 98 % 63.5 mm
13:55 -14.2 °C -13.9 °C 33694.1 hPa SSE 9.3 km/h 14.5 km/h 98 % 63.5 mm
14:00 -14.2 °C -14.4 °C 33694.1 hPa SSE 9.8 km/h 20.3 km/h 98 % 71.12 mm
14:01 -14.2 °C -13.9 °C 33694.1 hPa SSE 10.3 km/h 20.3 km/h 98 % 71.12 mm
14:06 -14.2 °C -13.9 °C 33694.1 hPa SSE 14.5 km/h 20.3 km/h 98 % 63.5 mm
14:08 -14.2 °C -13.9 °C 33694.1 hPa South 20.3 km/h 23 km/h 98 % 71.12 mm
14:13 -14.2 °C -13.9 °C 33694.1 hPa SE 16.9 km/h 28.5 km/h 98 % 63.5 mm
14:18 -14.2 °C -13.9 °C 33694.1 hPa Calm   28.5 km/h 98 % 71.12 mm
14:23 -14.2 °C -13.9 °C 33694.1 hPa SSE 2.3 km/h 20.3 km/h 98 % 63.5 mm
14:26 -14.2 °C -13.9 °C 33660.2 hPa SSE 7.6 km/h 20.3 km/h 98 % 63.5 mm
14:31 -14.2 °C -13.9 °C 33660.2 hPa Calm   22 km/h 98 % 63.5 mm
14:33 -14.2 °C -13.9 °C 33660.2 hPa South 10.3 km/h 22 km/h 98 % 63.5 mm
14:34 -14.2 °C -13.9 °C 33660.2 hPa SSE 9.8 km/h 22 km/h 98 % 63.5 mm
14:39 -14.2 °C -13.9 °C 33660.2 hPa Calm   24.8 km/h 98 % 63.5 mm
14:40 -14.2 °C -13.9 °C 33660.2 hPa South 3.4 km/h 24.8 km/h 98 % 63.5 mm
14:45 -14.2 °C -13.9 °C 33660.2 hPa Calm   24.8 km/h 98 % 71.12 mm
14:50 -14.2 °C -14.4 °C 33660.2 hPa South 8.9 km/h 17.4 km/h 98 % 71.12 mm
14:55 -14.2 °C -14.4 °C 33660.2 hPa Calm   17.4 km/h 98 % 76.2 mm
15:00 -14.2 °C -14.4 °C 33660.2 hPa Calm   12.2 km/h 98 % 83.82 mm
15:06 -14.2 °C -14.4 °C 33660.2 hPa South 9.3 km/h 22.5 km/h 98 % 96.52 mm
15:11 -14.2 °C -14.4 °C 33660.2 hPa Calm   22.5 km/h 98 % 96.52 mm
15:12 -14.2 °C -14.4 °C 33660.2 hPa Calm   22 km/h 98 % 96.52 mm
15:15 -14.2 °C -14.4 °C 33660.2 hPa Calm   14.5 km/h 98 % 104.14 mm
15:19 -14.2 °C -14.4 °C 33660.2 hPa Calm   9.3 km/h 98 % 96.52 mm
15:23 -14.3 °C -14.4 °C 33660.2 hPa SSW 6.9 km/h 9.3 km/h 98 % 104.14 mm
15:29 -14.3 °C -14.4 °C 33626.4 hPa SSW 9.3 km/h 26.2 km/h 98 % 104.14 mm
15:30 -14.3 °C -14.4 °C 33626.4 hPa South 9.8 km/h 26.2 km/h 98 % 104.14 mm
15:35 -14.2 °C -14.4 °C 33626.4 hPa South 8.9 km/h 16.3 km/h 98 % 104.14 mm
15:38 -14.2 °C -14.4 °C 33626.4 hPa SSW 8.9 km/h 12.7 km/h 98 % 96.52 mm
15:40 -14.2 °C -14.4 °C 33626.4 hPa Calm   14 km/h 98 % 104.14 mm
15:45 -14.2 °C -14.4 °C 33660.2 hPa Calm   14 km/h 98 % 96.52 mm
15:47 -14.2 °C -14.4 °C 33660.2 hPa SSW 11.1 km/h 14 km/h 98 % 96.52 mm
15:52 -14.3 °C -14.4 °C 33660.2 hPa Calm   11.1 km/h 98 % 83.82 mm
15:57 -14.2 °C -14.4 °C 33660.2 hPa WSW 4.2 km/h 11.1 km/h 98 % 91.44 mm
16:02 -14.2 °C -14.4 °C 33660.2 hPa Calm   7.6 km/h 98 % 83.82 mm
16:03 -14.2 °C -14.4 °C 33660.2 hPa Calm   7.6 km/h 98 % 76.2 mm
16:07 -14.2 °C -14.4 °C 33660.2 hPa Calm   5.6 km/h 98 % 83.82 mm
16:12 -14.2 °C -14.4 °C 33660.2 hPa Calm     98 % 83.82 mm
16:16 -14.2 °C -14.4 °C 33660.2 hPa Calm     98 % 76.2 mm
16:21 -14.2 °C -14.4 °C 33660.2 hPa Calm     98 % 76.2 mm
16:26 -14.3 °C -14.4 °C 33660.2 hPa Calm     98 % 71.12 mm
16:33 -14.3 °C -14.4 °C 33660.2 hPa Calm     98 % 63.5 mm
16:38 -14.3 °C -14.4 °C 33660.2 hPa Calm     98 % 63.5 mm
16:43 -14.3 °C -14.4 °C 33660.2 hPa Calm     98 % 58.42 mm
16:45 -14.3 °C -14.4 °C 33660.2 hPa Calm     98 % 58.42 mm
16:46 -14.3 °C -14.4 °C 33660.2 hPa Calm     98 % 58.42 mm
16:51 -14.3 °C -14.4 °C 33660.2 hPa Calm     98 % 45.72 mm
16:52 -14.3 °C -14.4 °C 33660.2 hPa Calm     98 % 38.1 mm
16:57 -14.3 °C -14.4 °C 33694.1 hPa Calm   3.4 km/h 98 % 33.02 mm
17:01 -14.3 °C -14.4 °C 33694.1 hPa Calm   3.4 km/h 98 % 33.02 mm
17:06 -14.3 °C -14.4 °C 33694.1 hPa WSW 8 km/h 9.8 km/h 98 % 20.32 mm
17:08 -14.3 °C -14.4 °C 33694.1 hPa WSW 14.5 km/h 14.5 km/h 98 % 20.32 mm
17:11 -14.3 °C -14.4 °C 33694.1 hPa West 6.4 km/h 14.5 km/h 98 % 12.7 mm
17:14 -14.3 °C -14.4 °C 33694.1 hPa NW 19.2 km/h 19.2 km/h 98 % 20.32 mm
17:19 -14.3 °C -14.4 °C 33694.1 hPa WNW 15.6 km/h 26.7 km/h 98 % 20.32 mm
17:22 -14.3 °C -14.4 °C 33694.1 hPa SSW 14.5 km/h 26.7 km/h 98 % 12.7 mm
17:27 -14.3 °C -14.4 °C 33731.3 hPa WNW 19.2 km/h 26.7 km/h 98 % 12.7 mm
17:32 -14.3 °C -14.4 °C 33731.3 hPa North 14 km/h 39.4 km/h 98 % 7.62 mm
17:37 -14.3 °C -14.4 °C 33731.3 hPa West 4.2 km/h 39.4 km/h 98 % 7.62 mm
17:38 -14.3 °C -14.4 °C 33731.3 hPa West 4.2 km/h 39.4 km/h 98 % 7.62 mm
17:43 -14.4 °C -14.4 °C 33731.3 hPa NNW 16.3 km/h 37.5 km/h 98 % 7.62 mm
17:47 -14.4 °C -14.4 °C 33731.3 hPa WSW 8.9 km/h 29.5 km/h 98 % 7.62 mm
17:52 -14.5 °C -14.4 °C 33731.3 hPa West 6.4 km/h 25.4 km/h 98 % 7.62 mm
17:57 -14.6 °C -14.4 °C 33751.6 hPa West 16.9 km/h 26.2 km/h 98 % 7.62 mm
18:03 -14.6 °C -14.4 °C 33751.6 hPa NE 16.3 km/h 25.4 km/h 98 % 7.62 mm
18:04 -14.6 °C -14.4 °C 33751.6 hPa NNW 27.7 km/h 27.7 km/h 98 % 7.62 mm
18:09 -14.6 °C -14.4 °C 33751.6 hPa North 11.6 km/h 27.7 km/h 98 % 7.62 mm
18:10 -14.6 °C -14.4 °C 33751.6 hPa NNW 9.8 km/h 27.7 km/h 98 % 7.62 mm
18:15 -14.6 °C -14.4 °C 33751.6 hPa WNW 8.9 km/h 22 km/h 98 % 0 mm
18:22 -14.6 °C -14.4 °C 33751.6 hPa WNW 7.6 km/h 29.5 km/h 98 % 0 mm
18:23 -14.6 °C -14.4 °C 33751.6 hPa NNE 11.1 km/h 29.5 km/h 98 % 0 mm
18:27 -14.6 °C -14.4 °C 33788.9 hPa North 8.9 km/h 29.5 km/h 98 % 0 mm
18:28 -14.6 °C -14.4 °C 33788.9 hPa NNW 14.5 km/h 29.5 km/h 98 % 0 mm
18:29 -14.6 °C -14.4 °C 33788.9 hPa NNW 14.5 km/h 29.5 km/h 98 % 0 mm
18:34 -14.7 °C -14.4 °C 33788.9 hPa West 2.3 km/h 22 km/h 98 % 0 mm
18:37 -14.7 °C -14.4 °C 33788.9 hPa WNW 2.3 km/h 20.9 km/h 98 % 0 mm
18:39 -14.6 °C -14.4 °C 33788.9 hPa NW 20.3 km/h 20.9 km/h 98 % 0 mm
18:43 -14.6 °C -14.4 °C 33788.9 hPa NNW 7.6 km/h 20.9 km/h 98 % 0 mm
18:48 -14.6 °C -14.4 °C 33788.9 hPa NNW 18.7 km/h 22 km/h 98 % 0 mm
18:53 -14.6 °C -14.4 °C 33788.9 hPa NW 12.2 km/h 22 km/h 98 % 0 mm
18:54 -14.6 °C -14.4 °C 33788.9 hPa NNW 15.6 km/h 20.3 km/h 98 % 0 mm
18:59 -14.6 °C -14.4 °C 33822.8 hPa WNW 12.7 km/h 28.5 km/h 98 % 0 mm
19:02 -14.6 °C -14.4 °C 33822.8 hPa WNW 16.9 km/h 28.5 km/h 98 % 0 mm
19:04 -14.6 °C -14.4 °C 33822.8 hPa West 7.6 km/h 28.5 km/h 98 % 0 mm
19:07 -14.6 °C -14.4 °C 33822.8 hPa West 15 km/h 28.5 km/h 98 % 0 mm
19:10 -14.6 °C -14.4 °C 33822.8 hPa WSW 14 km/h 22.5 km/h 98 % 0 mm
19:13 -14.6 °C -14.4 °C 33788.9 hPa WNW 16.9 km/h 26.2 km/h 98 % 0 mm
19:17 -14.6 °C -14.4 °C 33788.9 hPa West 19.2 km/h 26.2 km/h 98 % 0 mm
19:20 -14.6 °C -14.4 °C 33788.9 hPa West 19.2 km/h 26.7 km/h 98 % 0 mm
19:25 -14.6 °C -14.4 °C 33788.9 hPa WNW 9.8 km/h 26.7 km/h 98 % 0 mm
19:29 -14.6 °C -14.4 °C 33822.8 hPa West 24.3 km/h 24.3 km/h 98 % 0 mm
19:31 -14.5 °C -14.4 °C 33822.8 hPa West 11.6 km/h 27.7 km/h 98 % 0 mm
19:34 -14.5 °C -14.4 °C 33822.8 hPa West 14 km/h 27.7 km/h 98 % 0 mm
19:37 -14.5 °C -14.4 °C 33822.8 hPa West 9.3 km/h 27.7 km/h 98 % 0 mm
19:40 -14.5 °C -14.4 °C 33822.8 hPa West 14 km/h 22.5 km/h 98 % 0 mm
19:45 -14.5 °C -14.4 °C 33856.6 hPa West 22 km/h 26.2 km/h 98 % 0 mm
19:48 -14.5 °C -14.4 °C 33856.6 hPa West 25.4 km/h 27.7 km/h 98 % 0 mm
19:53 -14.5 °C -14.4 °C 33856.6 hPa West 22.5 km/h 27.7 km/h 98 % 0 mm
19:54 -14.4 °C -14.4 °C 33856.6 hPa West 39.9 km/h 39.9 km/h 98 % 0 mm
19:58 -14.4 °C -14.4 °C 33890.5 hPa West 17.4 km/h 39.9 km/h 98 % 0 mm
20:01 -14.4 °C -14.4 °C 33890.5 hPa WNW 26.2 km/h 39.9 km/h 98 % 0 mm
20:06 -14.4 °C -14.4 °C 33890.5 hPa West 12.7 km/h 28.5 km/h 98 % 0 mm
20:08 -14.4 °C -14.4 °C 33890.5 hPa WNW 20.3 km/h 28.5 km/h 98 % 0 mm
20:12 -14.4 °C -14.4 °C 33890.5 hPa West 20.9 km/h 28.5 km/h 98 % 0 mm
20:16 -14.4 °C -14.4 °C 33890.5 hPa WSW 34.1 km/h 34.1 km/h 98 % 0 mm
20:18 -14.4 °C -14.4 °C 33890.5 hPa West 16.3 km/h 34.1 km/h 98 % 0 mm
20:22 -14.4 °C -14.4 °C 33890.5 hPa WNW 14 km/h 34.1 km/h 98 % 0 mm
20:27 -14.3 °C -14.4 °C 33890.5 hPa WSW 27.7 km/h 28.5 km/h 98 % 0 mm
20:32 -14.3 °C -14.4 °C 33890.5 hPa West 22 km/h 28.5 km/h 98 % 0 mm
20:37 -14.3 °C -14.4 °C 33890.5 hPa WNW 15 km/h 33.2 km/h 98 % 0 mm
20:38 -14.3 °C -14.4 °C 33890.5 hPa West 25.4 km/h 33.2 km/h 98 % 0 mm
20:43 -14.3 °C -14.4 °C 33890.5 hPa WNW 19.6 km/h 29 km/h 98 % 0 mm
20:44 -14.3 °C -14.4 °C 33890.5 hPa West 20.3 km/h 29 km/h 98 % 0 mm
20:47 -14.3 °C -14.4 °C 33890.5 hPa WSW 14 km/h 27.2 km/h 98 % 0 mm
20:50 -14.3 °C -14.4 °C 33890.5 hPa West 16.9 km/h 27.2 km/h 98 % 0 mm
20:54 -14.3 °C -14.4 °C 33890.5 hPa WSW 16.9 km/h 27.7 km/h 98 % 0 mm
20:59 -14.3 °C -14.4 °C 33924.3 hPa West 18.7 km/h 27.7 km/h 98 % 7.62 mm
21:02 -14.3 °C -14.4 °C 33924.3 hPa West 22.5 km/h 27.7 km/h 98 % 7.62 mm
21:04 -14.3 °C -14.4 °C 33924.3 hPa WSW 14 km/h 25.4 km/h 98 % 7.62 mm
21:09 -14.4 °C -14.4 °C 33924.3 hPa West 20.3 km/h 25.4 km/h 98 % 7.62 mm
21:14 -14.4 °C -14.4 °C 33924.3 hPa WSW 16.3 km/h 22.5 km/h 98 % 7.62 mm
21:20 -14.4 °C -14.4 °C 33924.3 hPa WSW 8 km/h 22.5 km/h 98 % 7.62 mm
21:25 -14.4 °C -14.4 °C 33924.3 hPa WNW 9.3 km/h 24.3 km/h 98 % 7.62 mm
21:29 -14.5 °C -14.4 °C 33924.3 hPa WSW 15.6 km/h 24.3 km/h 98 % 7.62 mm
21:34 -14.5 °C -14.4 °C 33924.3 hPa WSW 27.7 km/h 27.7 km/h 98 % 7.62 mm
21:40 -14.4 °C -14.4 °C 33924.3 hPa West 20.3 km/h 28.5 km/h 98 % 7.62 mm
21:41 -14.4 °C -14.4 °C 33958.2 hPa West 14.5 km/h 28.5 km/h 98 % 7.62 mm
21:46 -14.4 °C -14.4 °C 33958.2 hPa West 27.7 km/h 28.5 km/h 98 % 7.62 mm
21:47 -14.3 °C -14.4 °C 33958.2 hPa West 16.3 km/h 28.5 km/h 98 % 7.62 mm
21:50 -14.3 °C -14.4 °C 33958.2 hPa WSW 20.9 km/h 29 km/h 98 % 7.62 mm
21:55 -14.2 °C -14.4 °C 33958.2 hPa WSW 20.9 km/h 29 km/h 98 % 7.62 mm
21:56 -14.2 °C -14.4 °C 33958.2 hPa WSW 28.5 km/h 29 km/h 98 % 7.62 mm
22:01 -14.2 °C -13.9 °C 33958.2 hPa West 22 km/h 31.4 km/h 98 % 0 mm
22:06 -14.1 °C -13.9 °C 33958.2 hPa WSW 20.3 km/h 39.4 km/h 98 % 0 mm
22:10 -14 °C -13.9 °C 33958.2 hPa SSW 39.4 km/h 39.4 km/h 98 % 0 mm
22:12 -14 °C -13.9 °C 33958.2 hPa West 33.2 km/h 39.4 km/h 98 % 0 mm
22:17 -13.9 °C -13.9 °C 33958.2 hPa SW 31.9 km/h 39.4 km/h 97 % 0 mm
22:19 -13.9 °C -13.9 °C 33958.2 hPa West 30.7 km/h 39.4 km/h 96 % 0 mm
22:22 -13.8 °C -13.9 °C 33958.2 hPa West 26.2 km/h 36.5 km/h 96 % 0 mm
22:26 -13.8 °C -13.9 °C 33958.2 hPa WSW 26.7 km/h 41.2 km/h 95 % 0 mm
22:31 -13.7 °C -14.4 °C 33958.2 hPa West 27.2 km/h 46.8 km/h 94 % 0 mm
22:33 -13.7 °C -14.4 °C 33958.2 hPa WSW 27.7 km/h 46.8 km/h 93 % 0 mm
22:38 -13.7 °C -14.4 °C 33958.2 hPa West 19.6 km/h 46.8 km/h 92 % 0 mm
22:39 -13.7 °C -14.4 °C 33958.2 hPa West 24.8 km/h 46.8 km/h 92 % 0 mm
22:44 -13.7 °C -14.4 °C 33958.2 hPa WSW 25.4 km/h 34.1 km/h 91 % 0 mm
22:49 -13.7 °C -14.4 °C 33958.2 hPa WNW 32.3 km/h 39.4 km/h 90 % 0 mm
22:50 -13.7 °C -14.4 °C 33958.2 hPa West 17.4 km/h 39.4 km/h 90 % 0 mm
22:55 -13.7 °C -14.4 °C 33958.2 hPa West 31.4 km/h 39.4 km/h 89 % 0 mm
23:00 -13.6 °C -14.4 °C 33958.2 hPa WNW 34.1 km/h 45.9 km/h 88 % 0 mm
23:03 -13.6 °C -14.4 °C 33958.2 hPa West 27.2 km/h 45.9 km/h 88 % 0 mm
23:08 -13.6 °C -14.4 °C 33958.2 hPa West 39.4 km/h 39.4 km/h 87 % 0 mm
23:13 -13.5 °C -14.4 °C 33958.2 hPa WSW 26.7 km/h 51 km/h 86 % 0 mm
23:17 -13.5 °C -14.4 °C 33958.2 hPa West 44.1 km/h 51 km/h 85 % 0 mm
23:22 -13.4 °C -15 °C 33958.2 hPa WSW 33.6 km/h 50.5 km/h 83 % 0 mm
23:24 -13.4 °C -15 °C 33958.2 hPa West 26.7 km/h 50.5 km/h 83 % 0 mm
23:28 -13.4 °C -15 °C 33992.1 hPa WNW 23.8 km/h 50.5 km/h 83 % 0 mm
23:32 -13.4 °C -15 °C 33992.1 hPa West 35.2 km/h 45.1 km/h 83 % 0 mm
23:37 -13.4 °C -15 °C 33992.1 hPa West 45.1 km/h 45.1 km/h 83 % 0 mm
23:38 -13.4 °C -15 °C 33992.1 hPa West 39.4 km/h 45.1 km/h 83 % 0 mm
23:40 -13.4 °C -15 °C 33992.1 hPa West 39.9 km/h 45.1 km/h 83 % 0 mm
23:45 -13.4 °C -15 °C 34029.3 hPa West 60.8 km/h 60.8 km/h 83 % 0 mm
23:50 -13.4 °C -15 °C 34029.3 hPa West 27.2 km/h 60.8 km/h 81 % 0 mm
23:51 -13.4 °C -15 °C 34029.3 hPa SW 26.2 km/h 60.8 km/h 82 % 0 mm
23:56 -13.4 °C -15 °C 34029.3 hPa West 22.5 km/h 50.5 km/h 82 % 0 mm
23:57 -13.4 °C -15 °C 34029.3 hPa WSW 26.7 km/h 49.7 km/h 82 % 0 mm
23:59 -13.4 °C -15 °C 34029.3 hPa West 26.2 km/h 49.7 km/h 82 % 0 mm
Le Gheer Warneton
Courtoisie de Weather Underground - 2.75 mb

Mise a jour : 25/02/2018 18:23:11
Généré par Cumulus 1.9.4 (1099)